Regional Weather Roundup
Issued by NWS

Home | Current Version | Previous Version | Text Only | Print | Product List | Glossary On
Versions: 1 2 3 4 5 6 7 8 9 10 11 12 13 14 15 16 17 18 19 20 21 22 23 24 25 26 27 28 29 30 31 32 33 34 35 36 37 38 39 40 41 42 43 44 45 46 47 48 49 50
983
ASCA44 KEWX 192112
RWRMX

LATIN AMERICA AND CARIBBEAN REGIONAL WEATHER ROUNDUP
NATIONAL WEATHER SERVICE AUSTIN/SAN ANTONIO TX
300 PM CST SUN FEB 19 2017

NOTE: "FAIR" INDICATED FEW OR NO CLOUDS BELOW 12,000 FEET WITH NO
SIGNIFICANT WEATHER AND/OR OBSTRUCTIONS TO VISIBILITY.

BAJA CALIFORNIA

CITY           SKY/WX    TMP DP  RH WIND       PRES   REMARKS
LORETO         MOSUNNY   70  55  60 NE14      29.94F
LA PAZ         PTSUNNY   70  50  49 N7        30.00F
MEXICALI       MOSUNNY   68  48  49 SE6       29.92F
S.J. DEL CABO  MOSUNNY   75  41  29 NW8       29.96S
TIJUANA        CLOUDY    55  46  71 W12       30.03F

NORTHWESTERN MEXICO

CITY           SKY/WX    TMP DP  RH WIND       PRES   REMARKS
CULIACAN       SUNNY     72  46  40 W9        29.97F
DURANGO        PTSUNNY   63  34  34 SW29      30.04F
GUAYMAS        PTSUNNY   64  57  77 W12       29.94F
HERMOSILLO     LGT RAIN  63  55  77 SW9       29.99F
CD. JUAREZ     PTSUNNY   59  34  38 W14       29.87S
LOS MOCHIS     PTSUNNY   68  54  60 S9        29.99F
OBREGON        PTSUNNY   68  54  60 S9        29.95F

NORTHEASTERN MEXICO

CITY           SKY/WX    TMP DP  RH WIND       PRES   REMARKS
CHIHUAHUA      MOSUNNY   64  25  22 SW17      29.90F
MATAMOROS      MOSUNNY   84  72  65 SE17G31   29.72F
MONCLOVA       PTSUNNY   86  25  10 W15       29.73
MONTERREY      PTSUNNY   86  57  37 NE9       29.68F
NUEVO LAREDO   PTSUNNY   84  64  51 SE7       29.72S
PIEDRAS NEGRAS CLOUDY    81  64  57 E9        29.76F
REYNOSA        MOSUNNY   88  63  42 SE17G40   29.68F
SALTILLO       MOSUNNY   79  45  29 S18       29.94S
TORREON        PTSUNNY   72  46  40 NW9       29.88R
CD. VICTORIA   PTSUNNY   91  55  29 S12       29.70F

WESTERN MEXICO

CITY           SKY/WX    TMP DP  RH WIND       PRES   REMARKS
AGUASCALIENTES PTSUNNY   68  34  28 SW17      30.15F
COLIMA         CLOUDY    72  63  73 SW9       30.07F
DEL BAJIO      PTSUNNY   70  37  30 W7        30.20F
GUADALAJARA    CLOUDY    72  39  30 SW5       30.12F
MANZANILLO     CLOUDY    77  70  78 SE12      29.94F
MAZATLAN       MOSUNNY   75  59  57 NW7       29.97F
P. VALLARTA    CLOUDY    79  66  65 W8        29.96F
URUAPAN        DRIZZLE   66  52  59 CALM      30.14F
ZACATECAS      MOSUNNY   64  36  34 SW40      30.12F

CENTRAL MEXICO

CITY           SKY/WX    TMP DP  RH WIND       PRES   REMARKS
CUERNAVACA     PTSUNNY   84  41  21 SW8       30.02F
MEXICO CITY    MOSUNNY   73  30  20 SE3       30.19F
MORELIA        PTSUNNY   73  41  31 SW6G18    30.13F
POZA RICA      PTSUNNY   86  73  66 CALM      29.80F HX  93
PUEBLA         PTSUNNY   66  36  32 S17       30.21F
QUERETARO      PTSUNNY   72  41  33 W14       30.18
S. LUIS POTOSI PTSUNNY   72  25  17 SW14G25   30.09F
TAMPICO        PTSUNNY   82  72  69 S12       29.74F
TOLUCA         PTSUNNY   64  34  32 S6        30.28F

SOUTHERN MEXICO

CITY           SKY/WX    TMP DP  RH WIND       PRES   REMARKS
ACAPULCO       MOSUNNY   82  70  65 SW9       29.88F
B. DE HUATULCO PTSUNNY   82  72  69 S15       29.94F
OAXACA         CLOUDY    82  36  18 S8        30.06F
P. ESCONDIDO   MOSUNNY   82  72  69 SW9       29.99F
VERACRUZ       PTSUNNY   91  70  49 SE6       29.73F HX  97
ZIHUATANEJO    PTSUNNY   86  72  62 SW12      29.91F HX  92

YUCATAN PENINSULA

CITY           SKY/WX    TMP DP  RH WIND       PRES   REMARKS
CAMPECHE       MOSUNNY   97  64  34 NW12      29.77F HX  99
CANCUN         MOSUNNY   82  72  69 SE18      29.94F
CHETUMAL       MOSUNNY   84  72  65 E9        29.88F
CD. DEL CARMEN PTSUNNY   88  72  58 N8        29.78F HX  94
COZUMEL        PTSUNNY   84  72  65 SE16      29.91F
MERIDA         PTSUNNY   97  63  32 SE8       29.83F HX  98
MINATITLAN     PTSUNNY   90  68  48 S23       29.74F HX  93
TAPACHULA      MOSUNNY   88  66  48 W12       29.87F HX  90
TUX. GUTIERREZ SUNNY     93  50  22 CALM      29.82F HX  90
VILLAHERMOSA   MOSUNNY   91  70  49 NE9       29.79F HX  97

CENTRAL AMERICA

CITY           SKY/WX    TMP DP  RH WIND       PRES   REMARKS
BELIZE CITY    MOSUNNY   86  75  70 E10       29.85F HX  95
MANAGUA        PTCLDY    91  61  35 E9        29.80F HX  91

CARIBBEAN

CITY           SKY/WX    TMP DP  RH WIND       PRES   REMARKS
CURACAO        MOSUNNY   82  70  65 E13       29.92F
KINGSTON       MOSUNNY   84  70  61 SE17      29.97S
NASSAU         MOSUNNY   86  73  66 W8        30.02F HX  93
SAN JUAN       PTSUNNY   77  72  83 SW6       30.00F
SANTO DOMINGO  PTSUNNY   81  70  69 NE5       29.97S
ST. CROIX      MOSUNNY   81  66  61 SE9       30.00
ST. KITTS      MOSUNNY   81  66  61 NE9       29.97S
ST. MAARTEN    MOSUNNY   81  68  65 E6        30.00R
ST. THOMAS     SUNNY     81  70  69 SE10      29.99

$$





USA.gov is the U.S. government's official web portal to all federal, state and local government web resources and services.